CDT,Max TemperatureF,Mean TemperatureF,Min TemperatureF,Max Dew PointF,MeanDew PointF,Min DewpointF,Max Humidity, Mean Humidity, Min Humidity, Max Sea Level PressureIn, Mean Sea Level PressureIn, Min Sea Level PressureIn, Max VisibilityMiles, Mean VisibilityMiles, Min VisibilityMiles, Max Wind SpeedMPH, Mean Wind SpeedMPH, Max Gust SpeedMPH,PrecipitationIn, CloudCover, Events, WindDirDegrees
2011-10-1,73,57,41,45,37,32,76,51,31,30.11,29.99,29.91,10,10,10,22,13,30,0.00,0,,176
2011-10-2,73,58,42,52,46,41,100,73,38,30.03,29.97,29.92,10,10,8,14,4,18,0.00,0,,117
2011-10-3,68,56,44,54,49,45,100,76,52,30.07,30.02,29.95,10,10,10,15,4,,0.00,0,,12
2011-10-4,71,58,44,55,50,45,100,79,43,30.07,29.97,29.84,10,10,10,17,6,20,0.00,1,,27
2011-10-5,87,70,53,52,46,39,82,50,19,29.84,29.77,29.74,10,10,10,24,12,36,0.00,0,,152
2011-10-6,80,70,59,48,44,41,55,41,26,29.82,29.78,29.72,10,10,10,33,17,45,0.00,1,,151
2011-10-7,73,68,62,54,45,28,64,45,21,29.68,29.49,29.37,10,10,7,32,22,67,0.00,4,Rain,176
2011-10-8,60,56,53,52,45,39,82,66,51,30.14,29.87,29.54,10,10,10,16,12,26,0.00,5,,269
2011-10-9,59,50,41,48,39,36,100,66,45,30.32,30.23,30.09,10,10,5,10,5,20,0.00,2,Rain,79
2011-10-10,60,53,46,57,51,46,100,90,72,30.05,29.80,29.70,10,9,1,20,7,25,0.09,7,Rain,191
2011-10-11,71,58,44,50,47,37,100,73,29,29.69,29.67,29.65,10,10,10,13,6,17,0.00,2,,175
2011-10-12,62,56,50,59,55,50,100,94,77,29.74,29.66,29.63,10,9,2,15,6,20,0.17,5,Rain-Thunderstorm,337
2011-10-13,57,48,39,46,43,39,100,86,63,29.75,29.73,29.67,10,10,9,14,10,22,0.00,4,,326
2011-10-14,51,44,37,41,37,34,100,77,50,29.82,29.78,29.75,10,10,10,22,9,33,0.00,6,,302
2011-10-15,55,46,37,39,35,32,93,69,41,29.83,29.81,29.76,10,10,10,21,11,26,0.00,2,,294
2011-10-16,51,44,37,36,29,25,81,57,37,29.86,29.81,29.77,10,10,10,31,15,47,0.00,1,,302
2011-10-17,48,42,35,30,28,27,70,57,43,29.98,29.87,29.81,10,10,10,21,15,30,0.00,0,,315
2011-10-18,44,37,30,32,23,19,75,58,37,30.21,30.13,30.04,10,10,10,18,12,26,0.00,1,,327
2011-10-19,41,32,24,30,27,23,100,78,57,30.30,30.22,30.17,10,10,2,7,4,,0.00,3,,45
2011-10-20,50,36,21,32,27,19,100,74,43,30.17,30.04,29.88,10,10,10,12,4,18,0.00,0,,178
2011-10-21,59,46,32,37,33,28,100,68,41,30.06,29.94,29.81,10,10,10,20,7,26,0.00,3,,315
2011-10-22,62,45,28,45,34,27,100,75,42,30.07,29.96,29.71,10,10,10,22,5,31,0.00,2,Thunderstorm,193
2011-10-23,59,46,32,37,31,25,93,56,29,29.92,29.80,29.73,10,10,10,22,9,30,0.00,2,,296
2011-10-24,51,38,26,36,33,27,100,80,50,30.03,29.99,29.94,10,10,7,7,2,,0.00,4,,160
2011-10-25,48,38,28,37,31,27,100,73,43,30.10,30.05,30.03,10,10,9,13,2,16,0.00,6,,7
2011-10-26,48,42,32,36,33,27,100,78,49,30.12,30.09,30.04,10,10,6,16,6,24,0.01,4,Rain,306
2011-10-27,48,36,23,36,29,23,100,85,53,30.05,29.99,29.90,10,10,10,13,3,17,0.00,3,,168
2011-10-28,37,34,32,34,28,25,93,78,70,30.01,29.96,29.92,10,10,10,12,7,18,0.00,1,,288
2011-10-29,,,,,,,,,,,,,,,,,,,,,,
2011-10-30,41,39,37,36,33,32,93,79,70,29.94,29.84,29.75,10,10,10,13,8,18,0.00,8,,306
2011-10-31,57,44,32,37,33,28,87,56,38,29.92,29.69,29.61,10,10,10,18,9,25,0.00,4,,189